Location: Stendal
(52.5994°N, 11.8400°E)
Time: 18:25:11
(UTC+01:00)

Envisat - Pass Details

Date: 04 October 2022
Orbit: 763 x 765 km, 98.2° (Epoch: 30 November)

Event Time Altitude Azimuth Distance (km) Brightness Sun altitude
Rises 05:18:37 0° 17° (NNE) 3,248 6.8 -18.8°
Reaches altitude 10° 05:21:00 10° 23° (NNE) 2,316 6.0 -18.5°
Maximum altitude 05:25:59 52° 100° (E) 952 3.8 -17.8°
Drops below altitude 10° 05:30:56 10° 176° (S) 2,298 5.3 -17.0°
Sets 05:33:17 0° 182° (S) 3,220 6.1 -16.7°
